Weather History for Duluth Sky Harbor, MN

Change the Weather History Date:

Monday, October 17, 2011

  Actual Average Record
Temperature  
Mean Temperature 48 °F -  
Max Temperature 53 °F 53 °F 85 °F (1961)
Min Temperature 42 °F 35 °F 15 °F (1952)
Degree Days  
Heating Degree Days 18    
Moisture  
Dew Point 32 °F    
Average Humidity 54    
Maximum Humidity 62    
Minimum Humidity 46    
Precipitation  
Precipitation 0.00 in - - ()
Sea Level Pressure  
Sea Level Pressure 29.70 in    
Wind  
Wind Speed 19 mph (West)    
Max Wind Speed 25 mph    
Max Gust Speed 34 mph    
Visibility 10 miles    
Events      
Averages and records for this station are not official NWS values.
T = Trace of Precipitation, MM = Missing Value Source: NWS Daily Summary

Daily Weather History Graph

Daily Weather History Graph

Search for Another Location

Airport:

Trip Planner

Search our weather history database for the weather conditions in past years. The results will help you decide how hot, cold, wet, or windy it might be!

Date:

Astronomy

Oct. 17, 2011 Rise Set
Actual Time 7:28 AM CDT 6:17 PM CDT
Civil Twilight 6:57 AM CDT 6:48 PM CDT
Nautical Twilight 6:22 AM CDT 7:23 PM CDT
Astronomical Twilight 5:47 AM CDT 7:58 PM CDT
Moon 9:44 PM CDT (10/17) 12:50 PM CDT (10/17)
Length of Visible Light 11h 50m
Length of Day
10h 49m
Waning Gibbous, 74% of the Moon is Illuminated
Oct 17
Waning Gibbous
Oct 19
Last Quarter
Oct 26
New
Nov 2
First Quarter
Nov 10
Full

Hourly Weather History & Observations

Time (CDT) Temp. Windchill Dew Point Humidity Pressure Visibility Wind Dir Wind Speed Gust Speed Precip Events Conditions
12:13 AM 48.2 °F - 28.4 °F 46% 29.66 in 10.0 mi West 21.9 mph 29.9 mph N/A   Clear
12:33 AM 48.2 °F - 28.4 °F 46% 29.66 in 10.0 mi West 20.7 mph 32.2 mph N/A   Clear
12:53 AM 48.2 °F - 30.2 °F 50% 29.66 in 10.0 mi West 18.4 mph - N/A   Clear
1:13 AM 48.2 °F - 28.4 °F 46% 29.65 in 10.0 mi West 18.4 mph 27.6 mph N/A   Clear
1:33 AM 48.2 °F - 28.4 °F 46% 29.65 in 10.0 mi West 18.4 mph 26.5 mph N/A   Clear
1:53 AM 48.2 °F - 28.4 °F 46% 29.65 in 10.0 mi West 21.9 mph 27.6 mph N/A   Clear
2:14 AM 48.2 °F - 28.4 °F 46% 29.65 in 10.0 mi West 18.4 mph 25.3 mph N/A   Clear
2:33 AM 46.4 °F 38.5 °F 28.4 °F 50% 29.65 in 10.0 mi WSW 21.9 mph 25.3 mph N/A   Clear
2:53 AM 46.4 °F 39.5 °F 28.4 °F 50% 29.66 in 10.0 mi WSW 17.3 mph 24.2 mph N/A   Clear
3:14 AM 46.4 °F 39.5 °F 28.4 °F 50% 29.65 in 10.0 mi WSW 17.3 mph 25.3 mph N/A   Clear
3:33 AM 46.4 °F 38.5 °F 28.4 °F 50% 29.65 in 10.0 mi WSW 21.9 mph 28.8 mph N/A   Clear
3:53 AM 46.4 °F 39.0 °F 28.4 °F 50% 29.65 in 10.0 mi WSW 19.6 mph 24.2 mph N/A   Clear
4:14 AM 46.4 °F 39.2 °F 30.2 °F 53% 29.65 in 10.0 mi West 18.4 mph - N/A   Clear
4:33 AM 46.4 °F 39.2 °F 30.2 °F 53% 29.65 in 10.0 mi West 18.4 mph 24.2 mph N/A   Clear
4:53 AM 46.4 °F 39.2 °F 30.2 °F 53% 29.65 in 10.0 mi WSW 18.4 mph 26.5 mph N/A   Clear
5:14 AM 46.4 °F 38.5 °F 30.2 °F 53% 29.65 in 10.0 mi West 21.9 mph 26.5 mph N/A   Clear
5:33 AM 46.4 °F 39.2 °F 30.2 °F 53% 29.65 in 10.0 mi WSW 18.4 mph 26.5 mph N/A   Clear
5:53 AM 46.4 °F 39.0 °F 30.2 °F 53% 29.65 in 10.0 mi WSW 19.6 mph - N/A   Clear
6:14 AM 44.6 °F 37.8 °F 30.2 °F 57% 29.65 in 10.0 mi WSW 15.0 mph 24.2 mph N/A   Clear
6:33 AM 44.6 °F 37.8 °F 30.2 °F 57% 29.65 in 10.0 mi WSW 15.0 mph 20.7 mph N/A   Clear
6:53 AM 44.6 °F 37.8 °F 30.2 °F 57% 29.65 in 10.0 mi WSW 15.0 mph 24.2 mph N/A   Clear
7:14 AM 44.6 °F 37.4 °F 30.2 °F 57% 29.66 in 10.0 mi WSW 16.1 mph 24.2 mph N/A   Clear
7:33 AM 44.6 °F 37.2 °F 30.2 °F 57% 29.67 in 10.0 mi WSW 17.3 mph 23.0 mph N/A   Clear
7:53 AM 42.8 °F 35.8 °F 30.2 °F 61% 29.67 in 10.0 mi WSW 13.8 mph - N/A   Clear
8:14 AM 42.8 °F 35.4 °F 30.2 °F 61% 29.68 in 10.0 mi SW 15.0 mph 20.7 mph N/A   Clear
8:33 AM 44.6 °F 37.4 °F 32.0 °F 61% 29.68 in 10.0 mi WSW 16.1 mph 20.7 mph N/A   Clear
8:53 AM 44.6 °F 37.4 °F 32.0 °F 61% 29.68 in 10.0 mi WSW 16.1 mph 25.3 mph N/A   Clear
9:14 AM 46.4 °F 38.5 °F 32.0 °F 57% 29.68 in 10.0 mi West 21.9 mph 28.8 mph N/A   Clear
9:33 AM 46.4 °F 38.3 °F 32.0 °F 57% 29.68 in 10.0 mi West 23.0 mph 34.5 mph N/A   Clear
9:53 AM 46.4 °F 38.3 °F 32.0 °F 57% 29.68 in 10.0 mi West 23.0 mph 31.1 mph N/A   Clear
10:14 AM 48.2 °F - 32.0 °F 54% 29.68 in 10.0 mi West 23.0 mph 28.8 mph N/A   Clear
10:33 AM 48.2 °F - 33.8 °F 58% 29.69 in 10.0 mi West 17.3 mph 28.8 mph N/A   Clear
10:53 AM 50.0 °F - 33.8 °F 54% 29.68 in 10.0 mi West 19.6 mph - N/A   Clear
11:14 AM 51.8 °F - 33.8 °F 50% 29.68 in 10.0 mi West 19.6 mph 26.5 mph N/A   Clear
11:33 AM 51.8 °F - 33.8 °F 50% 29.68 in 10.0 mi West 21.9 mph - N/A   Clear
11:53 AM 51.8 °F - 33.8 °F 50% 29.68 in 10.0 mi West 21.9 mph 28.8 mph N/A   Clear
12:14 PM 53.6 °F - 33.8 °F 47% 29.68 in 10.0 mi West 23.0 mph 27.6 mph N/A   Clear
12:33 PM 53.6 °F - 33.8 °F 47% 29.68 in 10.0 mi West 25.3 mph 32.2 mph N/A   Clear
12:53 PM 53.6 °F - 33.8 °F 47% 29.68 in 10.0 mi West 19.6 mph 27.6 mph N/A   Clear
1:14 PM 53.6 °F - 35.6 °F 51% 29.68 in 10.0 mi West 19.6 mph 27.6 mph N/A   Scattered Clouds
1:53 PM 53.6 °F - 35.6 °F 51% 29.69 in 10.0 mi WNW 19.6 mph 27.6 mph N/A   Overcast
2:14 PM 53.6 °F - 35.6 °F 51% 29.69 in 10.0 mi WNW 20.7 mph 31.1 mph N/A   Overcast
2:33 PM 53.6 °F - 35.6 °F 51% 29.70 in 10.0 mi West 21.9 mph 28.8 mph N/A   Overcast
2:53 PM 53.6 °F - 35.6 °F 51% 29.70 in 10.0 mi WNW 24.2 mph 28.8 mph N/A   Overcast
3:13 PM 53.6 °F - 35.6 °F 51% 29.71 in 10.0 mi West 23.0 mph 28.8 mph N/A   Overcast
3:34 PM 53.6 °F - 35.6 °F 51% 29.72 in 10.0 mi WNW 20.7 mph 31.1 mph N/A   Overcast
3:53 PM 53.6 °F - 35.6 °F 51% 29.72 in 10.0 mi West 20.7 mph - N/A   Overcast
4:13 PM 51.8 °F - 35.6 °F 54% 29.72 in 10.0 mi West 23.0 mph - N/A   Overcast
4:33 PM 51.8 °F - 35.6 °F 54% 29.74 in 10.0 mi West 21.9 mph 26.5 mph N/A   Overcast
4:54 PM 51.8 °F - 35.6 °F 54% 29.75 in 10.0 mi WNW 25.3 mph - N/A   Overcast
5:13 PM 51.8 °F - 35.6 °F 54% 29.75 in 10.0 mi WNW 18.4 mph 26.5 mph N/A   Overcast
5:33 PM 51.8 °F - 35.6 °F 54% 29.76 in 10.0 mi WNW 18.4 mph 27.6 mph N/A   Overcast
5:54 PM 51.8 °F - 35.6 °F 54% 29.76 in 10.0 mi WNW 19.6 mph 25.3 mph N/A   Overcast
6:13 PM 51.8 °F - 35.6 °F 54% 29.77 in 10.0 mi WNW 19.6 mph 25.3 mph N/A   Overcast
6:33 PM 51.8 °F - 35.6 °F 54% 29.78 in 10.0 mi WNW 19.6 mph - N/A   Overcast
7:13 PM 50.0 °F - 37.4 °F 62% 29.78 in 10.0 mi WNW 13.8 mph - N/A   Overcast
7:33 PM 50.0 °F - 35.6 °F 58% 29.79 in 10.0 mi WNW 16.1 mph - N/A   Overcast
7:54 PM 50.0 °F - 35.6 °F 58% 29.79 in 10.0 mi WNW 19.6 mph 24.2 mph N/A   Overcast
8:13 PM 48.2 °F - 33.8 °F 58% 29.80 in 10.0 mi NW 10.4 mph 23.0 mph N/A   Mostly Cloudy
8:33 PM 48.2 °F - 33.8 °F 58% 29.81 in 10.0 mi NW 12.7 mph 21.9 mph N/A   Mostly Cloudy
8:53 PM 46.4 °F 42.4 °F 33.8 °F 62% 29.81 in 10.0 mi NW 8.1 mph 17.3 mph N/A   Mostly Cloudy
9:13 PM 46.4 °F 39.8 °F 33.8 °F 62% 29.81 in 10.0 mi WNW 16.1 mph - N/A   Overcast
9:33 PM 46.4 °F 39.8 °F 33.8 °F 62% 29.82 in 10.0 mi WNW 16.1 mph - N/A   Mostly Cloudy
10:13 PM 46.4 °F 39.8 °F 33.8 °F 62% 29.83 in 10.0 mi NW 16.1 mph 19.6 mph N/A   Overcast
10:33 PM 46.4 °F 40.7 °F 33.8 °F 62% 29.83 in 10.0 mi NW 12.7 mph - N/A   Overcast
10:53 PM 46.4 °F 39.2 °F 35.6 °F 66% 29.83 in 10.0 mi NW 18.4 mph 25.3 mph N/A   Overcast
11:13 PM 44.6 °F 37.8 °F 35.6 °F 71% 29.84 in 10.0 mi NW 15.0 mph 23.0 mph N/A   Overcast
11:34 PM 44.6 °F 39.2 °F 33.8 °F 66% 29.84 in 10.0 mi NW 10.4 mph 18.4 mph N/A   Overcast
11:53 PM 44.6 °F 37.8 °F 33.8 °F 66% 29.84 in 10.0 mi WNW 15.0 mph - N/A   Overcast